Qianfan Jigui 02-05

operational
NORAD ID: 61556 Int'l Des: 2024-185 Owner: YUANX Country: CN Constellation: qianfan
LEOCIRCULARPOLAR

About Qianfan Jigui 02-05

Description loading...

Live Position

Loading 3D Globe...

Upcoming Passes

Altitude History

Altitude vs Time

uPlot chart will show altitude changes over time

Two-Line Element Set

1 61556U 24185E 25346.98433861 .00000723 00000-0 35793-3 0 9997
2 61556 88.9814 77.7232 0006128 327.8934 32.1880 14.16293051 69788
Epoch: Dec 12, 2025 • Age: 7 hours

Current Status

Altitude 846.0 km
Velocity 7.43 km/s
Sub-Earth Point 28.74°N, 68.12°E
Launch Date Oct 15, 2024
Age 1.1 years
Type internet

Technical Details

Classification Payload
Mass 267.00 kg
Dry Mass 267.00 kg
Total Mass 267.00 kg
Length 0.30 m
Diameter 3.00 m
Span 10.00 m
Shape Box+pan
Manufacturer GESIH/SECM
Bus Type Qianfan
Phase Status In Orbit
Owner/State YUANX/CN

Large Constellations

Loading constellations...